Location: Baller�as
(41.9020°N, 0.1554°W)
Time: 12:24:54
(UTC+00:00)

Cosmos 921 Rocket - Pass Details

Date: 10 August 2020
Orbit: 572 x 631 km, 75.8° (Epoch: 21 September)

Event Time Altitude Azimuth Distance (km) Brightness Sun altitude
Rises 21:52:31 0° 336° (NNW) 2,805 7.7 -25.1°
Reaches altitude 10° 21:54:49 10° 329° (NNW) 1,895 6.6 -25.4°
Enters shadow 21:58:38 42° 265° (W) 823 3.8 -25.8°
